Time,TemperatureF,DewpointF,PressureIn,WindDirection,WindDirectionDegrees,WindSpeedMPH,WindSpeedGustMPH,Humidity,HourlyPrecipIn,Conditions,Clouds,dailyrainin,SoftwareType,DateUTC
2013-01-02 00:02:00,41.0,30.9,29.93,NE,45,0.0,0.0,67,0.00,,,0.00,WUHU21423XXSP,2013-01-02 05:02:00,
2013-01-02 00:04:00,40.8,30.7,29.93,NE,45,0.0,0.0,67,0.00,,,0.00,WUHU21423XXSP,2013-01-02 05:04:00,
2013-01-02 00:08:00,40.8,30.7,29.92,NE,45,0.0,0.0,67,0.00,,,0.00,WUHU21423XXSP,2013-01-02 05:08:00,
2013-01-02 00:14:00,40.8,30.7,29.92,East,90,0.0,2.7,67,0.00,,,0.00,WUHU21423XXSP,2013-01-02 05:14:00,
2013-01-02 00:16:00,40.8,30.7,29.92,East,90,0.0,2.7,67,0.00,,,0.00,WUHU21423XXSP,2013-01-02 05:16:00,
2013-01-02 00:23:00,40.8,30.7,29.93,East,90,0.0,0.0,67,0.00,,,0.00,WUHU21423XXSP,2013-01-02 05:23:00,
2013-01-02 00:29:00,40.6,30.5,29.92,East,90,0.0,0.0,67,0.00,,,0.00,WUHU21423XXSP,2013-01-02 05:29:00,
2013-01-02 00:36:00,40.5,30.7,29.92,East,90,0.0,0.0,68,0.00,,,0.00,WUHU21423XXSP,2013-01-02 05:36:00,
2013-01-02 00:42:00,40.1,30.5,29.92,East,90,0.0,0.0,68,0.00,,,0.00,WUHU21423XXSP,2013-01-02 05:42:00,
2013-01-02 00:49:00,39.9,30.2,29.92,East,90,0.0,0.0,69,0.00,,,0.00,WUHU21423XXSP,2013-01-02 05:49:00,
2013-01-02 00:55:00,39.7,30.5,29.92,East,90,0.0,0.0,69,0.00,,,0.00,WUHU21423XXSP,2013-01-02 05:55:00,
2013-01-02 01:01:00,39.7,30.4,29.91,East,90,0.0,0.0,69,0.00,,,0.00,WUHU21423XXSP,2013-01-02 06:01:00,
2013-01-02 01:08:00,39.7,30.4,29.92,East,90,0.0,0.0,69,0.00,,,0.00,WUHU21423XXSP,2013-01-02 06:08:00,
2013-01-02 01:14:00,39.7,30.4,29.92,ENE,67,0.0,0.0,69,0.00,,,0.00,WUHU21423XXSP,2013-01-02 06:14:00,
2013-01-02 01:21:00,39.7,30.7,29.92,ENE,67,0.0,0.0,70,0.00,,,0.00,WUHU21423XXSP,2013-01-02 06:21:00,
2013-01-02 01:27:00,39.6,30.6,29.92,ENE,67,0.0,0.0,70,0.00,,,0.00,WUHU21423XXSP,2013-01-02 06:27:00,
2013-01-02 01:34:00,39.4,30.4,29.92,ENE,67,0.0,0.0,70,0.00,,,0.00,WUHU21423XXSP,2013-01-02 06:34:00,
2013-01-02 01:40:00,39.4,30.7,29.91,ENE,67,0.0,0.0,71,0.00,,,0.00,WUHU21423XXSP,2013-01-02 06:40:00,
2013-01-02 01:46:00,39.0,30.4,29.91,ENE,67,0.0,0.0,71,0.00,,,0.00,WUHU21423XXSP,2013-01-02 06:46:00,
2013-01-02 01:53:00,39.0,30.4,29.91,ENE,67,0.0,0.0,71,0.00,,,0.00,WUHU21423XXSP,2013-01-02 06:53:00,
2013-01-02 01:59:00,39.0,30.4,29.92,ENE,67,0.0,0.0,71,0.00,,,0.00,WUHU21423XXSP,2013-01-02 06:59:00,
2013-01-02 02:06:00,39.4,31.0,29.93,East,90,0.0,0.0,72,0.00,,,0.00,WUHU21423XXSP,2013-01-02 07:06:00,
2013-01-02 02:12:00,39.0,30.7,29.93,East,90,0.0,0.0,72,0.00,,,0.00,WUHU21423XXSP,2013-01-02 07:12:00,
2013-01-02 02:19:00,39.0,30.7,29.93,East,90,0.0,0.0,72,0.00,,,0.00,WUHU21423XXSP,2013-01-02 07:19:00,
2013-01-02 02:25:00,39.0,30.7,29.93,East,90,0.0,0.0,72,0.00,,,0.00,WUHU21423XXSP,2013-01-02 07:25:00,
2013-01-02 02:31:00,39.0,30.7,29.94,East,90,0.0,0.0,72,0.00,,,0.00,WUHU21423XXSP,2013-01-02 07:31:00,
2013-01-02 02:38:00,38.8,30.5,29.94,East,90,0.0,0.0,72,0.00,,,0.00,WUHU21423XXSP,2013-01-02 07:38:00,
2013-01-02 02:45:00,38.8,30.9,29.93,East,90,0.0,0.0,73,0.00,,,0.00,WUHU21423XXSP,2013-01-02 07:45:00,
2013-01-02 02:51:00,38.7,30.9,29.93,East,90,0.0,0.0,73,0.00,,,0.00,WUHU21423XXSP,2013-01-02 07:51:00,
2013-01-02 02:57:00,38.5,30.9,29.94,East,90,0.0,0.0,74,0.00,,,0.00,WUHU21423XXSP,2013-01-02 07:57:00,
2013-01-02 03:03:00,38.5,30.9,29.94,East,90,0.0,0.0,74,0.00,,,0.00,WUHU21423XXSP,2013-01-02 08:03:00,
2013-01-02 03:10:00,38.5,30.9,29.93,East,90,0.0,0.0,74,0.00,,,0.00,WUHU21423XXSP,2013-01-02 08:10:00,
2013-01-02 03:16:00,38.5,30.7,29.94,East,90,0.0,0.0,74,0.00,,,0.00,WUHU21423XXSP,2013-01-02 08:16:00,
2013-01-02 03:23:00,38.5,30.9,29.93,East,90,0.0,0.0,74,0.00,,,0.00,WUHU21423XXSP,2013-01-02 08:23:00,
2013-01-02 03:29:00,38.3,31.0,29.94,East,90,0.0,0.0,75,0.00,,,0.00,WUHU21423XXSP,2013-01-02 08:29:00,
2013-01-02 03:36:00,38.1,31.0,29.93,East,90,0.0,0.0,75,0.00,,,0.00,WUHU21423XXSP,2013-01-02 08:36:00,
2013-01-02 03:42:00,38.1,30.9,29.92,East,90,0.0,0.0,75,0.00,,,0.00,WUHU21423XXSP,2013-01-02 08:42:00,
2013-01-02 03:48:00,38.1,30.9,29.93,East,90,0.0,0.0,75,0.00,,,0.00,WUHU21423XXSP,2013-01-02 08:48:00,
2013-01-02 03:55:00,37.9,31.0,29.93,East,90,0.0,0.0,76,0.00,,,0.00,WUHU21423XXSP,2013-01-02 08:55:00,
2013-01-02 04:01:00,37.9,31.4,29.93,East,90,0.0,0.0,77,0.00,,,0.00,WUHU21423XXSP,2013-01-02 09:01:00,
2013-01-02 04:08:00,37.9,31.4,29.92,East,90,0.0,0.0,77,0.00,,,0.00,WUHU21423XXSP,2013-01-02 09:08:00,
2013-01-02 04:14:00,37.8,31.5,29.92,East,90,0.0,0.0,78,0.00,,,0.00,WUHU21423XXSP,2013-01-02 09:14:00,
2013-01-02 04:21:00,37.8,31.5,29.93,East,90,0.0,0.0,78,0.00,,,0.00,WUHU21423XXSP,2013-01-02 09:21:00,
2013-01-02 04:27:00,37.8,31.5,29.93,East,90,0.0,0.0,78,0.00,,,0.00,WUHU21423XXSP,2013-01-02 09:27:00,
2013-01-02 04:33:00,37.8,31.5,29.93,East,90,0.0,0.0,78,0.00,,,0.00,WUHU21423XXSP,2013-01-02 09:33:00,
2013-01-02 04:40:00,37.8,31.5,29.92,East,90,0.0,0.0,78,0.00,,,0.00,WUHU21423XXSP,2013-01-02 09:40:00,
2013-01-02 04:46:00,37.6,31.7,29.92,East,90,0.0,0.0,79,0.00,,,0.00,WUHU21423XXSP,2013-01-02 09:46:00,
2013-01-02 04:53:00,37.6,31.7,29.92,East,90,0.0,0.0,79,0.00,,,0.00,WUHU21423XXSP,2013-01-02 09:53:00,
2013-01-02 04:59:00,37.2,31.5,29.92,East,90,0.0,0.0,79,0.00,,,0.00,WUHU21423XXSP,2013-01-02 09:59:00,
2013-01-02 05:06:00,37.4,31.3,29.92,East,90,0.0,0.0,79,0.00,,,0.00,WUHU21423XXSP,2013-01-02 10:06:00,
2013-01-02 05:12:00,37.4,31.5,29.92,East,90,0.0,0.0,79,0.00,,,0.00,WUHU21423XXSP,2013-01-02 10:12:00,
2013-01-02 05:18:00,37.6,31.7,29.92,East,90,0.0,0.0,79,0.00,,,0.00,WUHU21423XXSP,2013-01-02 10:18:00,
2013-01-02 05:25:00,37.6,31.7,29.93,East,90,0.0,0.0,79,0.00,,,0.00,WUHU21423XXSP,2013-01-02 10:25:00,
2013-01-02 05:31:00,37.4,31.5,29.93,East,90,0.0,0.0,80,0.00,,,0.00,WUHU21423XXSP,2013-01-02 10:31:00,
2013-01-02 05:38:00,37.2,31.6,29.94,East,90,0.0,0.0,80,0.00,,,0.00,WUHU21423XXSP,2013-01-02 10:38:00,
2013-01-02 05:44:00,37.2,31.6,29.94,East,90,0.0,0.0,80,0.00,,,0.00,WUHU21423XXSP,2013-01-02 10:44:00,
2013-01-02 05:50:00,37.0,31.7,29.94,East,90,0.0,0.0,81,0.00,,,0.00,WUHU21423XXSP,2013-01-02 10:50:00,
2013-01-02 05:57:00,37.0,31.7,29.95,East,90,0.0,0.0,81,0.00,,,0.00,WUHU21423XXSP,2013-01-02 10:57:00,
2013-01-02 06:03:00,37.2,31.9,29.95,East,90,0.0,0.0,81,0.00,,,0.00,WUHU21423XXSP,2013-01-02 11:03:00,
2013-01-02 06:10:00,37.2,31.9,29.96,East,90,0.0,0.0,81,0.00,,,0.00,WUHU21423XXSP,2013-01-02 11:10:00,
2013-01-02 06:16:00,37.0,31.7,29.96,East,90,0.0,0.0,81,0.00,,,0.00,WUHU21423XXSP,2013-01-02 11:16:00,
2013-01-02 06:23:00,36.9,31.6,29.96,East,90,0.0,0.0,81,0.00,,,0.00,WUHU21423XXSP,2013-01-02 11:23:00,
2013-01-02 06:29:00,36.7,31.4,29.97,East,90,0.0,0.0,81,0.00,,,0.00,WUHU21423XXSP,2013-01-02 11:29:00,
2013-01-02 06:35:00,36.7,31.4,29.97,East,90,0.0,0.0,81,0.00,,,0.00,WUHU21423XXSP,2013-01-02 11:35:00,
2013-01-02 06:42:00,36.5,31.2,29.97,East,90,0.0,0.0,81,0.00,,,0.00,WUHU21423XXSP,2013-01-02 11:42:00,
2013-01-02 06:48:00,36.3,31.0,29.97,East,90,0.0,0.0,81,0.00,,,0.00,WUHU21423XXSP,2013-01-02 11:48:00,
2013-01-02 06:55:00,36.1,31.0,29.97,East,90,0.0,0.0,81,0.00,,,0.00,WUHU21423XXSP,2013-01-02 11:55:00,
2013-01-02 07:01:00,36.1,30.8,29.98,East,90,0.0,0.0,81,0.00,,,0.00,WUHU21423XXSP,2013-01-02 12:01:00,
2013-01-02 07:08:00,35.8,30.8,29.99,East,90,0.0,0.0,82,0.00,,,0.00,WUHU21423XXSP,2013-01-02 12:08:00,
2013-01-02 07:14:00,35.8,30.8,29.99,East,90,0.0,0.0,82,0.00,,,0.00,WUHU21423XXSP,2013-01-02 12:14:00,
2013-01-02 07:21:00,35.8,30.8,29.99,East,90,0.0,0.0,82,0.00,,,0.00,WUHU21423XXSP,2013-01-02 12:21:00,
2013-01-02 07:27:00,35.8,30.8,29.99,East,90,0.0,0.0,82,0.00,,,0.00,WUHU21423XXSP,2013-01-02 12:27:00,
2013-01-02 07:33:00,35.8,30.8,29.99,East,90,0.0,0.0,82,0.00,,,0.00,WUHU21423XXSP,2013-01-02 12:33:00,
2013-01-02 07:40:00,36.0,30.8,29.98,East,90,0.0,0.0,82,0.00,,,0.00,WUHU21423XXSP,2013-01-02 12:40:00,
2013-01-02 07:46:00,35.8,30.8,29.99,East,90,0.0,0.0,82,0.00,,,0.00,WUHU21423XXSP,2013-01-02 12:46:00,
2013-01-02 07:53:00,35.4,30.4,29.99,East,90,0.0,0.0,82,0.00,,,0.00,WUHU21423XXSP,2013-01-02 12:53:00,
2013-01-02 07:59:00,35.6,30.6,30.00,East,90,0.0,0.0,82,0.00,,,0.00,WUHU21423XXSP,2013-01-02 12:59:00,
2013-01-02 08:05:00,35.4,30.4,30.00,East,90,0.0,0.0,82,0.00,,,0.00,WUHU21423XXSP,2013-01-02 13:05:00,
2013-01-02 08:12:00,35.6,30.6,29.99,East,90,0.0,0.0,82,0.00,,,0.00,WUHU21423XXSP,2013-01-02 13:12:00,
2013-01-02 08:18:00,35.8,30.4,30.00,East,90,0.0,0.0,83,0.00,,,0.00,WUHU21423XXSP,2013-01-02 13:18:00,
2013-01-02 08:25:00,35.8,31.1,30.01,East,90,0.0,0.0,83,0.00,,,0.00,WUHU21423XXSP,2013-01-02 13:25:00,
2013-01-02 08:31:00,36.1,31.2,30.02,East,90,0.0,0.0,83,0.00,,,0.00,WUHU21423XXSP,2013-01-02 13:31:00,
2013-01-02 08:38:00,36.3,31.6,30.02,East,90,0.0,0.0,83,0.00,,,0.00,WUHU21423XXSP,2013-01-02 13:38:00,
2013-01-02 08:44:00,36.9,32.0,30.02,East,90,0.0,0.0,83,0.00,,,0.00,WUHU21423XXSP,2013-01-02 13:44:00,
2013-01-02 08:50:00,37.2,32.3,30.02,East,90,0.0,0.0,83,0.00,,,0.00,WUHU21423XXSP,2013-01-02 13:50:00,
2013-01-02 08:57:00,37.6,32.9,30.02,East,90,0.0,0.0,82,0.00,,,0.00,WUHU21423XXSP,2013-01-02 13:57:00,
2013-01-02 09:03:00,37.8,32.8,30.02,ENE,67,0.0,1.6,82,0.00,,,0.00,WUHU21423XXSP,2013-01-02 14:03:00,
2013-01-02 09:10:00,37.8,32.5,30.02,ENE,67,0.0,2.5,81,0.00,,,0.00,WUHU21423XXSP,2013-01-02 14:10:00,
2013-01-02 09:16:00,37.9,32.4,30.03,ENE,67,0.0,0.0,80,0.00,,,0.00,WUHU21423XXSP,2013-01-02 14:16:00,
2013-01-02 09:23:00,37.9,32.4,30.03,ENE,67,0.0,0.0,80,0.00,,,0.00,WUHU21423XXSP,2013-01-02 14:23:00,
2013-01-02 09:29:00,37.9,32.2,30.03,ENE,67,0.9,0.9,79,0.00,,,0.00,WUHU21423XXSP,2013-01-02 14:29:00,
2013-01-02 09:35:00,37.9,32.0,30.03,ENE,67,0.0,0.9,79,0.00,,,0.00,WUHU21423XXSP,2013-01-02 14:35:00,
2013-01-02 09:42:00,37.9,32.0,30.04,ENE,67,0.0,0.0,79,0.00,,,0.00,WUHU21423XXSP,2013-01-02 14:42:00,
2013-01-02 09:48:00,38.1,32.2,30.04,ENE,67,0.0,0.0,79,0.00,,,0.00,WUHU21423XXSP,2013-01-02 14:48:00,
2013-01-02 09:55:00,38.3,32.4,30.03,ENE,67,0.0,0.0,79,0.00,,,0.00,WUHU21423XXSP,2013-01-02 14:55:00,
2013-01-02 10:01:00,38.5,32.6,30.03,ENE,67,0.0,0.0,79,0.00,,,0.00,WUHU21423XXSP,2013-01-02 15:01:00,
2013-01-02 10:08:00,38.8,32.6,30.04,ENE,67,0.0,0.0,78,0.00,,,0.00,WUHU21423XXSP,2013-01-02 15:08:00,
2013-01-02 10:14:00,38.8,32.6,30.04,ESE,112,0.0,0.0,78,0.00,,,0.00,WUHU21423XXSP,2013-01-02 15:14:00,
2013-01-02 10:20:00,38.8,32.6,30.04,ESE,112,0.0,0.0,78,0.00,,,0.00,WUHU21423XXSP,2013-01-02 15:20:00,
2013-01-02 10:27:00,39.2,32.9,30.03,ESE,112,0.0,0.0,78,0.00,,,0.00,WUHU21423XXSP,2013-01-02 15:27:00,
2013-01-02 10:33:00,39.4,32.8,30.04,ESE,112,0.0,0.0,77,0.00,,,0.00,WUHU21423XXSP,2013-01-02 15:33:00,
2013-01-02 10:40:00,39.4,32.8,30.04,ESE,112,0.0,0.0,77,0.00,,,0.00,WUHU21423XXSP,2013-01-02 15:40:00,
2013-01-02 10:46:00,39.7,33.1,30.03,NE,45,0.0,0.0,76,0.00,,,0.00,WUHU21423XXSP,2013-01-02 15:46:00,
2013-01-02 10:52:00,39.9,32.9,30.03,WNW,292,0.0,0.7,76,0.00,,,0.00,WUHU21423XXSP,2013-01-02 15:52:00,
2013-01-02 10:59:00,40.1,33.1,30.02,SSW,202,0.0,0.7,76,0.00,,,0.00,WUHU21423XXSP,2013-01-02 15:59:00,
2013-01-02 11:05:00,39.7,32.8,30.03,ESE,112,0.0,0.0,76,0.00,,,0.00,WUHU21423XXSP,2013-01-02 16:05:00,
2013-01-02 11:12:00,39.4,32.4,30.02,SSW,202,1.6,1.6,76,0.00,,,0.00,WUHU21423XXSP,2013-01-02 16:12:00,
2013-01-02 11:18:00,39.6,32.4,30.03,West,270,0.0,1.6,76,0.00,,,0.00,WUHU21423XXSP,2013-01-02 16:18:00,
2013-01-02 11:25:00,39.9,32.9,30.02,South,180,0.0,0.0,76,0.00,,,0.00,WUHU21423XXSP,2013-01-02 16:25:00,
2013-01-02 11:31:00,40.6,33.6,30.02,SW,225,0.0,0.7,76,0.00,,,0.00,WUHU21423XXSP,2013-01-02 16:31:00,
2013-01-02 11:37:00,40.8,33.4,30.02,SSW,202,0.0,0.0,75,0.00,,,0.00,WUHU21423XXSP,2013-01-02 16:37:00,
2013-01-02 11:44:00,41.4,33.8,30.02,SSW,202,0.0,0.0,75,0.00,,,0.00,WUHU21423XXSP,2013-01-02 16:44:00,
2013-01-02 11:50:00,41.2,33.5,30.02,South,180,0.0,0.0,74,0.00,,,0.00,WUHU21423XXSP,2013-01-02 16:50:00,
2013-01-02 11:57:00,41.2,33.5,30.01,SE,135,0.0,0.0,74,0.00,,,0.00,WUHU21423XXSP,2013-01-02 16:57:00,
2013-01-02 12:03:00,41.4,33.7,30.01,East,90,0.0,0.7,74,0.00,,,0.00,WUHU21423XXSP,2013-01-02 17:03:00,
2013-01-02 12:10:00,41.2,33.2,30.01,SSW,202,0.0,0.7,73,0.00,,,0.00,WUHU21423XXSP,2013-01-02 17:10:00,
2013-01-02 12:16:00,41.5,33.5,30.01,SE,135,0.0,0.0,73,0.00,,,0.00,WUHU21423XXSP,2013-01-02 17:16:00,
2013-01-02 12:22:00,41.5,33.3,30.01,SE,135,0.0,0.0,73,0.00,,,0.00,WUHU21423XXSP,2013-01-02 17:22:00,
2013-01-02 12:29:00,41.5,33.3,30.01,SSE,157,0.0,0.0,73,0.00,,,0.00,WUHU21423XXSP,2013-01-02 17:29:00,
2013-01-02 12:35:00,41.7,33.7,30.00,SE,135,1.6,1.6,73,0.00,,,0.00,WUHU21423XXSP,2013-01-02 17:35:00,
2013-01-02 12:42:00,41.9,33.9,29.99,South,180,0.0,1.6,73,0.00,,,0.00,WUHU21423XXSP,2013-01-02 17:42:00,
2013-01-02 12:48:00,41.7,33.7,30.00,SSE,157,0.0,0.0,73,0.00,,,0.00,WUHU21423XXSP,2013-01-02 17:48:00,
2013-01-02 12:55:00,41.7,33.7,30.00,SW,225,0.0,0.0,73,0.00,,,0.00,WUHU21423XXSP,2013-01-02 17:55:00,
2013-01-02 13:01:00,42.3,33.7,30.00,South,180,0.0,0.0,72,0.00,,,0.00,WUHU21423XXSP,2013-01-02 18:01:00,
2013-01-02 13:07:00,41.9,33.5,29.99,SE,135,0.0,0.0,72,0.00,,,0.00,WUHU21423XXSP,2013-01-02 18:07:00,
2013-01-02 13:14:00,41.7,33.4,29.99,SE,135,0.0,0.0,72,0.00,,,0.00,WUHU21423XXSP,2013-01-02 18:14:00,
2013-01-02 13:20:00,41.7,32.9,29.99,South,180,0.0,0.0,71,0.00,,,0.00,WUHU21423XXSP,2013-01-02 18:20:00,
2013-01-02 13:27:00,42.1,33.7,29.99,NW,315,0.0,0.0,72,0.00,,,0.00,WUHU21423XXSP,2013-01-02 18:27:00,
2013-01-02 13:33:00,41.9,33.5,29.99,WNW,292,1.1,1.1,72,0.00,,,0.00,WUHU21423XXSP,2013-01-02 18:33:00,
2013-01-02 13:39:00,41.7,33.0,29.99,WNW,292,0.0,1.1,71,0.00,,,0.00,WUHU21423XXSP,2013-01-02 18:39:00,
2013-01-02 13:46:00,42.3,33.6,29.99,WNW,292,0.0,1.1,71,0.00,,,0.00,WUHU21423XXSP,2013-01-02 18:46:00,
2013-01-02 13:52:00,42.6,33.9,29.99,NE,45,0.0,0.0,71,0.00,,,0.00,WUHU21423XXSP,2013-01-02 18:52:00,
2013-01-02 13:59:00,42.8,34.0,29.99,NNE,22,0.0,0.0,70,0.00,,,0.00,WUHU21423XXSP,2013-01-02 18:59:00,
2013-01-02 14:05:00,42.8,33.8,29.98,NE,45,0.0,0.0,70,0.00,,,0.00,WUHU21423XXSP,2013-01-02 19:05:00,
2013-01-02 14:12:00,42.6,34.0,29.98,NNW,337,0.0,0.0,70,0.00,,,0.00,WUHU21423XXSP,2013-01-02 19:12:00,
2013-01-02 14:18:00,42.6,33.2,29.98,NW,315,1.1,1.1,69,0.00,,,0.00,WUHU21423XXSP,2013-01-02 19:18:00,
2013-01-02 14:24:00,42.6,33.2,29.99,South,180,0.0,1.6,69,0.00,,,0.00,WUHU21423XXSP,2013-01-02 19:24:00,
2013-01-02 14:31:00,42.6,33.2,29.99,SE,135,0.0,0.0,69,0.00,,,0.00,WUHU21423XXSP,2013-01-02 19:31:00,
2013-01-02 14:37:00,43.2,33.3,30.00,ESE,112,2.9,2.9,68,0.00,,,0.00,WUHU21423XXSP,2013-01-02 19:37:00,
2013-01-02 14:44:00,43.2,33.1,30.00,ESE,112,0.0,2.9,67,0.00,,,0.00,WUHU21423XXSP,2013-01-02 19:44:00,
2013-01-02 14:50:00,43.3,32.5,30.00,East,90,4.3,4.3,66,0.00,,,0.00,WUHU21423XXSP,2013-01-02 19:50:00,
2013-01-02 14:57:00,43.2,32.2,29.99,North,0,0.0,4.3,65,0.00,,,0.00,WUHU21423XXSP,2013-01-02 19:57:00,
2013-01-02 15:03:00,43.3,32.7,30.00,North,0,0.0,0.0,66,0.00,,,0.00,WUHU21423XXSP,2013-01-02 20:03:00,
2013-01-02 15:09:00,43.5,32.1,30.00,East,90,0.0,0.0,64,0.00,,,0.00,WUHU21423XXSP,2013-01-02 20:09:00,
2013-01-02 15:16:00,43.3,31.9,30.00,East,90,0.0,0.0,63,0.00,,,0.00,WUHU21423XXSP,2013-01-02 20:16:00,
2013-01-02 15:22:00,43.3,31.6,30.01,ENE,67,0.0,0.0,63,0.00,,,0.00,WUHU21423XXSP,2013-01-02 20:22:00,
2013-01-02 15:29:00,43.5,31.7,30.02,ENE,67,0.0,0.0,63,0.00,,,0.00,WUHU21423XXSP,2013-01-02 20:29:00,
2013-01-02 15:35:00,43.5,31.3,30.02,ESE,112,0.0,0.0,62,0.00,,,0.00,WUHU21423XXSP,2013-01-02 20:35:00,
2013-01-02 15:42:00,43.3,31.2,30.03,ESE,112,0.0,0.0,62,0.00,,,0.00,WUHU21423XXSP,2013-01-02 20:42:00,
2013-01-02 15:48:00,43.3,30.8,30.03,ESE,112,0.0,0.0,61,0.00,,,0.00,WUHU21423XXSP,2013-01-02 20:48:00,
2013-01-02 15:54:00,43.3,30.8,30.03,ESE,112,0.0,0.0,61,0.00,,,0.00,WUHU21423XXSP,2013-01-02 20:54:00,
2013-01-02 16:01:00,43.2,29.8,30.03,NE,45,1.6,2.7,59,0.00,,,0.00,WUHU21423XXSP,2013-01-02 21:01:00,
2013-01-02 16:07:00,43.2,27.6,30.03,ENE,67,0.0,2.7,54,0.00,,,0.00,WUHU21423XXSP,2013-01-02 21:07:00,
2013-01-02 16:14:00,43.2,27.6,30.03,ESE,112,0.0,0.0,54,0.00,,,0.00,WUHU21423XXSP,2013-01-02 21:14:00,
2013-01-02 16:20:00,43.2,26.7,30.03,ESE,112,0.0,0.0,52,0.00,,,0.00,WUHU21423XXSP,2013-01-02 21:20:00,
2013-01-02 16:26:00,42.8,26.5,30.04,ESE,112,0.0,0.0,52,0.00,,,0.00,WUHU21423XXSP,2013-01-02 21:26:00,
2013-01-02 16:33:00,42.6,25.8,30.03,ESE,112,0.0,0.0,51,0.00,,,0.00,WUHU21423XXSP,2013-01-02 21:33:00,
2013-01-02 16:39:00,42.4,25.2,30.03,ESE,112,0.0,0.0,50,0.00,,,0.00,WUHU21423XXSP,2013-01-02 21:39:00,
2013-01-02 16:46:00,42.1,25.2,30.03,ESE,112,0.0,0.0,51,0.00,,,0.00,WUHU21423XXSP,2013-01-02 21:46:00,
2013-01-02 16:52:00,41.9,25.1,30.04,ESE,112,0.0,0.0,51,0.00,,,0.00,WUHU21423XXSP,2013-01-02 21:52:00,
2013-01-02 16:59:00,41.5,25.1,30.04,ESE,112,0.0,0.0,52,0.00,,,0.00,WUHU21423XXSP,2013-01-02 21:59:00,
2013-01-02 17:05:00,41.2,25.0,30.04,ESE,112,0.0,0.0,53,0.00,,,0.00,WUHU21423XXSP,2013-01-02 22:05:00,
2013-01-02 17:11:00,40.5,25.0,30.04,ESE,112,0.0,0.0,54,0.00,,,0.00,WUHU21423XXSP,2013-01-02 22:11:00,
2013-01-02 17:18:00,39.9,24.1,30.04,ESE,112,0.0,0.0,53,0.00,,,0.00,WUHU21423XXSP,2013-01-02 22:18:00,
2013-01-02 17:24:00,39.9,24.9,30.04,ESE,112,0.0,0.0,55,0.00,,,0.00,WUHU21423XXSP,2013-01-02 22:24:00,
2013-01-02 17:31:00,39.4,24.6,30.04,ESE,112,0.0,0.0,54,0.00,,,0.00,WUHU21423XXSP,2013-01-02 22:31:00,
2013-01-02 17:37:00,39.0,24.1,30.04,ESE,112,0.0,0.0,55,0.00,,,0.00,WUHU21423XXSP,2013-01-02 22:37:00,
2013-01-02 17:44:00,38.8,24.4,30.05,ESE,112,0.0,0.0,56,0.00,,,0.00,WUHU21423XXSP,2013-01-02 22:44:00,
2013-01-02 17:50:00,38.3,23.9,30.05,ESE,112,0.0,0.0,56,0.00,,,0.00,WUHU21423XXSP,2013-01-02 22:50:00,
2013-01-02 17:56:00,38.3,23.9,30.05,ESE,112,0.0,0.0,56,0.00,,,0.00,WUHU21423XXSP,2013-01-02 22:56:00,
2013-01-02 18:03:00,38.3,23.9,30.05,ESE,112,0.0,0.0,56,0.00,,,0.00,WUHU21423XXSP,2013-01-02 23:03:00,
2013-01-02 18:09:00,38.5,24.5,30.06,ESE,112,0.0,0.0,57,0.00,,,0.00,WUHU21423XXSP,2013-01-02 23:09:00,
2013-01-02 18:16:00,38.5,25.3,30.06,ESE,112,0.0,0.0,59,0.00,,,0.00,WUHU21423XXSP,2013-01-02 23:16:00,
2013-01-02 18:22:00,38.8,26.1,30.06,ESE,112,0.9,0.9,61,0.00,,,0.00,WUHU21423XXSP,2013-01-02 23:22:00,
2013-01-02 18:28:00,39.0,27.4,30.06,East,90,0.2,0.9,63,0.00,,,0.00,WUHU21423XXSP,2013-01-02 23:28:00,
2013-01-02 18:35:00,38.3,26.7,30.07,ENE,67,0.0,0.2,63,0.00,,,0.00,WUHU21423XXSP,2013-01-02 23:35:00,
2013-01-02 18:42:00,37.9,26.4,30.06,ENE,67,0.0,0.0,63,0.00,,,0.00,WUHU21423XXSP,2013-01-02 23:42:00,
2013-01-02 18:48:00,37.8,27.0,30.06,ENE,67,0.0,0.0,65,0.00,,,0.00,WUHU21423XXSP,2013-01-02 23:48:00,
2013-01-02 18:54:00,37.8,27.8,30.07,ENE,67,0.0,0.0,67,0.00,,,0.00,WUHU21423XXSP,2013-01-02 23:54:00,
2013-01-02 19:01:00,37.8,28.1,30.07,ENE,67,0.0,0.0,68,0.00,,,0.00,WUHU21423XXSP,2013-01-03 00:01:00,
2013-01-02 19:07:00,37.6,28.0,30.07,ENE,67,0.0,0.0,68,0.00,,,0.00,WUHU21423XXSP,2013-01-03 00:07:00,
2013-01-02 19:13:00,37.6,28.7,30.07,ENE,67,0.0,0.0,70,0.00,,,0.00,WUHU21423XXSP,2013-01-03 00:13:00,
2013-01-02 19:20:00,37.2,28.4,30.07,ENE,67,0.0,0.0,70,0.00,,,0.00,WUHU21423XXSP,2013-01-03 00:20:00,
2013-01-02 19:26:00,37.4,28.9,30.07,ENE,67,0.0,0.0,71,0.00,,,0.00,WUHU21423XXSP,2013-01-03 00:26:00,
2013-01-02 19:33:00,37.2,29.0,30.07,ENE,67,0.0,0.0,72,0.00,,,0.00,WUHU21423XXSP,2013-01-03 00:33:00,
2013-01-02 19:39:00,37.2,29.0,30.07,ENE,67,0.0,0.0,72,0.00,,,0.00,WUHU21423XXSP,2013-01-03 00:39:00,
2013-01-02 19:45:00,37.0,29.2,30.08,ENE,67,0.0,0.0,73,0.00,,,0.00,WUHU21423XXSP,2013-01-03 00:45:00,
2013-01-02 19:52:00,37.0,29.2,30.07,NE,45,0.0,0.0,73,0.00,,,0.00,WUHU21423XXSP,2013-01-03 00:52:00,
2013-01-02 19:59:00,37.0,29.5,30.09,NE,45,0.0,0.0,74,0.00,,,0.00,WUHU21423XXSP,2013-01-03 00:59:00,
2013-01-02 20:05:00,37.0,29.5,30.10,NE,45,0.0,0.0,74,0.00,,,0.00,WUHU21423XXSP,2013-01-03 01:05:00,
2013-01-02 20:11:00,36.9,29.3,30.10,NE,45,0.0,0.0,74,0.00,,,0.00,WUHU21423XXSP,2013-01-03 01:11:00,
2013-01-02 20:18:00,36.7,29.2,30.10,NE,45,0.0,0.0,74,0.00,,,0.00,WUHU21423XXSP,2013-01-03 01:18:00,
2013-01-02 20:24:00,36.7,29.2,30.10,NE,45,0.0,0.0,74,0.00,,,0.00,WUHU21423XXSP,2013-01-03 01:24:00,
2013-01-02 20:31:00,36.9,29.3,30.10,NE,45,0.0,0.0,74,0.00,,,0.00,WUHU21423XXSP,2013-01-03 01:31:00,
2013-01-02 20:37:00,36.9,29.3,30.11,ENE,67,2.9,2.9,74,0.00,,,0.00,WUHU21423XXSP,2013-01-03 01:37:00,
2013-01-02 20:43:00,37.0,29.5,30.11,ENE,67,0.0,2.9,74,0.00,,,0.00,WUHU21423XXSP,2013-01-03 01:43:00,
2013-01-02 20:50:00,37.0,29.5,30.11,ENE,67,0.0,0.0,74,0.00,,,0.00,WUHU21423XXSP,2013-01-03 01:50:00,
2013-01-02 20:56:00,36.9,29.5,30.11,East,90,0.0,0.0,74,0.00,,,0.00,WUHU21423XXSP,2013-01-03 01:56:00,
2013-01-02 21:03:00,36.9,29.0,30.11,ENE,67,2.5,4.3,73,0.00,,,0.00,WUHU21423XXSP,2013-01-03 02:03:00,
2013-01-02 21:09:00,36.9,29.0,30.11,NE,45,0.0,4.3,73,0.00,,,0.00,WUHU21423XXSP,2013-01-03 02:09:00,
2013-01-02 21:15:00,36.7,29.2,30.11,ENE,67,0.0,1.8,74,0.00,,,0.00,WUHU21423XXSP,2013-01-03 02:15:00,
2013-01-02 21:22:00,36.7,29.2,30.11,ENE,67,0.0,0.0,74,0.00,,,0.00,WUHU21423XXSP,2013-01-03 02:22:00,
2013-01-02 21:28:00,36.5,29.0,30.12,ENE,67,2.2,2.2,74,0.00,,,0.00,WUHU21423XXSP,2013-01-03 02:28:00,
2013-01-02 21:35:00,36.5,29.0,30.12,ENE,67,0.0,3.1,74,0.00,,,0.00,WUHU21423XXSP,2013-01-03 02:35:00,
2013-01-02 21:41:00,36.3,29.0,30.11,NE,45,0.0,3.1,74,0.00,,,0.00,WUHU21423XXSP,2013-01-03 02:41:00,
2013-01-02 21:48:00,36.3,28.8,30.12,ENE,67,0.0,0.0,74,0.00,,,0.00,WUHU21423XXSP,2013-01-03 02:48:00,
2013-01-02 21:54:00,36.3,28.8,30.12,ENE,67,0.0,0.0,74,0.00,,,0.00,WUHU21423XXSP,2013-01-03 02:54:00,
2013-01-02 22:01:00,36.3,28.8,30.12,ENE,67,0.7,2.2,74,0.00,,,0.00,WUHU21423XXSP,2013-01-03 03:01:00,
2013-01-02 22:07:00,36.3,28.8,30.10,NE,45,2.2,2.2,74,0.00,,,0.00,WUHU21423XXSP,2013-01-03 03:07:00,
2013-01-02 22:13:00,36.1,28.8,30.10,NE,45,0.0,5.1,74,0.00,,,0.00,WUHU21423XXSP,2013-01-03 03:13:00,
2013-01-02 22:20:00,36.1,28.6,30.13,NE,45,5.6,5.6,74,0.00,,,0.00,WUHU21423XXSP,2013-01-03 03:20:00,
2013-01-02 22:26:00,36.1,28.6,30.11,NE,45,6.3,6.3,74,0.00,,,0.00,WUHU21423XXSP,2013-01-03 03:26:00,
2013-01-02 22:33:00,36.0,28.4,30.11,ENE,67,0.0,6.3,74,0.00,,,0.00,WUHU21423XXSP,2013-01-03 03:33:00,
2013-01-02 22:39:00,36.0,28.4,30.12,ENE,67,0.0,0.0,74,0.00,,,0.00,WUHU21423XXSP,2013-01-03 03:39:00,
2013-01-02 22:46:00,35.8,28.3,30.12,ENE,67,0.0,0.9,74,0.00,,,0.00,WUHU21423XXSP,2013-01-03 03:46:00,
2013-01-02 22:52:00,35.8,28.3,30.13,NE,45,2.9,2.9,74,0.00,,,0.00,WUHU21423XXSP,2013-01-03 03:52:00,
2013-01-02 22:58:00,35.8,27.9,30.13,NE,45,1.6,3.8,73,0.00,,,0.00,WUHU21423XXSP,2013-01-03 03:58:00,
2013-01-02 23:05:00,35.8,27.9,30.13,ENE,67,0.0,3.8,73,0.00,,,0.00,WUHU21423XXSP,2013-01-03 04:05:00,
2013-01-02 23:11:00,35.4,27.6,30.13,ENE,67,3.1,3.1,73,0.00,,,0.00,WUHU21423XXSP,2013-01-03 04:11:00,
2013-01-02 23:18:00,35.4,27.6,30.13,East,90,2.9,3.1,73,0.00,,,0.00,WUHU21423XXSP,2013-01-03 04:18:00,
2013-01-02 23:24:00,35.2,27.4,30.13,ENE,67,0.0,2.9,73,0.00,,,0.00,WUHU21423XXSP,2013-01-03 04:24:00,
2013-01-02 23:30:00,35.2,27.4,30.13,ENE,67,1.6,2.5,73,0.00,,,0.00,WUHU21423XXSP,2013-01-03 04:30:00,
2013-01-02 23:37:00,35.2,27.1,30.13,ENE,67,0.0,1.6,72,0.00,,,0.00,WUHU21423XXSP,2013-01-03 04:37:00,
2013-01-02 23:43:00,35.1,26.9,30.14,ENE,67,0.0,1.6,72,0.00,,,0.00,WUHU21423XXSP,2013-01-03 04:43:00,
2013-01-02 23:50:00,34.9,26.4,30.13,NE,45,0.0,1.6,71,0.00,,,0.00,WUHU21423XXSP,2013-01-03 04:50:00,
2013-01-02 23:56:00,34.9,26.4,30.13,NE,45,0.0,1.8,71,0.00,,,0.00,WUHU21423XXSP,2013-01-03 04:56:00,